Location: Home
(42.5358°N, 72.7383°W)
Time: 06:43:56
(UTC-05:00)

Courier 1B Rocket - Pass Details

Date: 01 December 2021
Orbit: 920 x 1202 km, 28.2° (Epoch: 25 January)

Event Time Altitude Azimuth Distance (km) Brightness Sun altitude
Rises 23:44:14 0° 230° (SW) 3,578 - -69.4°
Reaches altitude 10° 23:47:38 10° 212° (SSW) 2,613 - -69.4°
Maximum altitude 23:51:49 19° 170° (S) 2,043 - -69.3°
Drops below altitude 10° 23:56:00 10° 127° (SE) 2,609 - -69.2°
Sets 23:59:24 0° 110° (ESE) 3,570 - -69.1°
